Time,TemperatureF,DewpointF,PressureIn,WindDirection,WindDirectionDegrees,WindSpeedMPH,WindSpeedGustMPH,Humidity,HourlyPrecipIn,Conditions,Clouds,dailyrainin,SoftwareType,DateUTC
2013-04-11 00:02:00,36.0,26.0,-100.00,West,281,7.0,17.0,66,-99.99,,,-99.99,,2013-04-11 06:02:00,
2013-04-11 00:12:00,36.0,27.0,-100.00,WNW,294,6.0,13.0,68,-99.99,,,-99.99,,2013-04-11 06:12:00,
2013-04-11 00:22:00,36.0,27.0,-100.00,WNW,294,6.0,13.0,68,-99.99,,,-99.99,,2013-04-11 06:22:00,
2013-04-11 00:32:00,36.0,27.0,-100.00,WNW,294,6.0,13.0,68,-99.99,,,-99.99,,2013-04-11 06:32:00,
2013-04-11 00:42:00,35.0,25.0,-100.00,North,9,1.0,4.0,68,-99.99,,,-99.99,,2013-04-11 06:42:00,
2013-04-11 00:52:00,35.0,25.0,-100.00,North,9,1.0,4.0,68,-99.99,,,-99.99,,2013-04-11 06:52:00,
2013-04-11 01:02:00,35.0,27.0,-100.00,NNW,332,2.0,6.0,72,-99.99,,,-99.99,,2013-04-11 07:02:00,
2013-04-11 01:12:00,35.0,27.0,-100.00,NNE,15,2.0,6.0,73,-99.99,,,-99.99,,2013-04-11 07:12:00,
2013-04-11 01:22:00,35.0,27.0,-100.00,NNE,15,2.0,6.0,73,-99.99,,,-99.99,,2013-04-11 07:22:00,
2013-04-11 01:31:00,35.0,27.0,-100.00,NNE,15,2.0,6.0,73,-99.99,,,-99.99,,2013-04-11 07:31:00,
2013-04-11 01:52:00,33.0,26.0,-100.00,NW,305,4.0,7.0,74,-99.99,,,-99.99,,2013-04-11 07:52:00,
2013-04-11 02:02:00,31.0,27.0,-100.00,NNW,331,7.0,13.0,83,-99.99,,,-99.99,,2013-04-11 08:02:00,
2013-04-11 02:12:00,29.0,28.0,-100.00,SE,145,3.0,6.0,92,-99.99,,,-99.99,,2013-04-11 08:12:00,
2013-04-11 02:22:00,29.0,28.0,-100.00,SE,145,3.0,6.0,92,-99.99,,,-99.99,,2013-04-11 08:22:00,
2013-04-11 02:32:00,29.0,28.0,-100.00,SE,145,3.0,6.0,92,-99.99,,,-99.99,,2013-04-11 08:32:00,
2013-04-11 02:42:00,29.0,27.0,-100.00,ESE,110,3.0,6.0,94,-99.99,,,-99.99,,2013-04-11 08:42:00,
2013-04-11 02:52:00,29.0,27.0,-100.00,ESE,110,3.0,6.0,94,-99.99,,,-99.99,,2013-04-11 08:52:00,
2013-04-11 03:02:00,29.0,28.0,-100.00,ESE,116,4.0,5.0,94,-99.99,,,-99.99,,2013-04-11 09:02:00,
2013-04-11 03:12:00,29.0,28.0,-100.00,ESE,116,5.0,7.0,94,-99.99,,,-99.99,,2013-04-11 09:12:00,
2013-04-11 03:22:00,29.0,28.0,-100.00,ESE,116,5.0,7.0,94,-99.99,,,-99.99,,2013-04-11 09:22:00,
2013-04-11 03:32:00,29.0,28.0,-100.00,ESE,116,5.0,7.0,94,-99.99,,,-99.99,,2013-04-11 09:32:00,
2013-04-11 03:42:00,29.0,28.0,-100.00,ESE,116,5.0,7.0,94,-99.99,,,-99.99,,2013-04-11 09:42:00,
2013-04-11 04:02:00,30.0,29.0,-100.00,ESE,109,4.0,8.0,94,-99.99,,,-99.99,,2013-04-11 10:02:00,
2013-04-11 04:12:00,31.0,29.0,-100.00,East,83,4.0,6.0,94,-99.99,,,-99.99,,2013-04-11 10:12:00,
2013-04-11 04:22:00,31.0,29.0,-100.00,East,83,4.0,6.0,94,-99.99,,,-99.99,,2013-04-11 10:22:00,
2013-04-11 04:32:00,31.0,29.0,-100.00,East,83,4.0,6.0,94,-99.99,,,-99.99,,2013-04-11 10:32:00,
2013-04-11 04:41:00,31.0,29.0,-100.00,East,83,4.0,6.0,94,-99.99,,,-99.99,,2013-04-11 10:41:00,
2013-04-11 05:12:00,30.0,29.0,-100.00,NNW,328,2.0,4.0,94,-99.99,,,-99.99,,2013-04-11 11:12:00,
2013-04-11 05:22:00,30.0,29.0,-100.00,WSW,254,2.0,5.0,95,-99.99,,,-99.99,,2013-04-11 11:22:00,
2013-04-11 05:32:00,30.0,29.0,-100.00,WSW,254,2.0,5.0,95,-99.99,,,-99.99,,2013-04-11 11:32:00,
2013-04-11 05:42:00,30.0,29.0,-100.00,WNW,301,1.0,3.0,95,-99.99,,,-99.99,,2013-04-11 11:42:00,
2013-04-11 05:52:00,30.0,29.0,-100.00,WNW,301,1.0,3.0,95,-99.99,,,-99.99,,2013-04-11 11:52:00,
2013-04-11 06:02:00,30.0,29.0,-100.00,ESE,105,0.0,2.0,95,-99.99,,,-99.99,,2013-04-11 12:02:00,
2013-04-11 06:12:00,30.0,29.0,-100.00,NE,48,2.0,3.0,95,-99.99,,,-99.99,,2013-04-11 12:12:00,
2013-04-11 06:22:00,30.0,29.0,-100.00,NE,48,2.0,3.0,95,-99.99,,,-99.99,,2013-04-11 12:22:00,
2013-04-11 06:32:00,30.0,29.0,-100.00,NE,48,2.0,3.0,95,-99.99,,,-99.99,,2013-04-11 12:32:00,
2013-04-11 06:42:00,30.0,29.0,-100.00,SW,235,1.0,2.0,95,-99.99,,,-99.99,,2013-04-11 12:42:00,
2013-04-11 06:52:00,30.0,29.0,-100.00,SW,235,1.0,2.0,95,-99.99,,,-99.99,,2013-04-11 12:52:00,
2013-04-11 07:02:00,30.0,29.0,-100.00,NE,47,3.0,5.0,95,-99.99,,,-99.99,,2013-04-11 13:02:00,
2013-04-11 07:12:00,30.0,28.0,-100.00,West,261,3.0,7.0,95,-99.99,,,-99.99,,2013-04-11 13:12:00,
2013-04-11 07:22:00,30.0,28.0,-100.00,West,261,3.0,7.0,95,-99.99,,,-99.99,,2013-04-11 13:22:00,
2013-04-11 07:32:00,30.0,28.0,-100.00,West,261,3.0,7.0,95,-99.99,,,-99.99,,2013-04-11 13:32:00,
2013-04-11 07:42:00,30.0,29.0,-100.00,WNW,300,2.0,6.0,95,-99.99,,,-99.99,,2013-04-11 13:42:00,
2013-04-11 07:53:00,30.0,29.0,-100.00,WNW,300,2.0,6.0,95,-99.99,,,-99.99,,2013-04-11 13:53:00,
2013-04-11 08:02:00,31.0,29.0,-100.00,WNW,285,6.0,15.0,94,-99.99,,,-99.99,,2013-04-11 14:02:00,
2013-04-11 08:12:00,32.0,29.0,-100.00,WNW,288,6.0,14.0,90,-99.99,,,-99.99,,2013-04-11 14:12:00,
2013-04-11 08:22:00,32.0,29.0,-100.00,WNW,288,6.0,14.0,90,-99.99,,,-99.99,,2013-04-11 14:22:00,
2013-04-11 08:30:00,33.0,28.0,-100.00,WNW,296,5.0,9.0,81,-99.99,,,-99.99,,2013-04-11 14:30:00,
2013-04-11 08:32:00,32.0,29.0,-100.00,WNW,288,6.0,14.0,90,-99.99,,,-99.99,,2013-04-11 14:32:00,
2013-04-11 08:42:00,32.0,29.0,-100.00,West,272,3.0,7.0,87,-99.99,,,-99.99,,2013-04-11 14:42:00,
2013-04-11 08:52:00,32.0,29.0,-100.00,West,272,3.0,7.0,87,-99.99,,,-99.99,,2013-04-11 14:52:00,
2013-04-11 09:02:00,33.0,28.0,-100.00,WNW,296,5.0,9.0,81,-99.99,,,-99.99,,2013-04-11 15:02:00,
2013-04-11 09:12:00,33.0,28.0,-100.00,WNW,296,5.0,9.0,81,-99.99,,,-99.99,,2013-04-11 15:12:00,
2013-04-11 09:22:00,33.0,28.0,-100.00,WNW,296,5.0,9.0,81,-99.99,,,-99.99,,2013-04-11 15:22:00,
2013-04-11 10:30:00,31.0,30.0,-100.00,NNE,29,5.0,9.0,94,-99.99,,,-99.99,,2013-04-11 16:30:00,
2013-04-11 11:02:00,31.0,30.0,-100.00,NNE,29,5.0,9.0,94,-99.99,,,-99.99,,2013-04-11 17:02:00,
2013-04-11 11:12:00,31.0,30.0,-100.00,NNE,29,5.0,9.0,94,-99.99,,,-99.99,,2013-04-11 17:12:00,
2013-04-11 11:22:00,31.0,30.0,-100.00,NNE,29,5.0,9.0,94,-99.99,,,-99.99,,2013-04-11 17:22:00,
2013-04-11 11:43:00,31.0,30.0,-100.00,ENE,75,4.0,6.0,96,-99.99,,,-99.99,,2013-04-11 17:43:00,
2013-04-11 11:53:00,31.0,30.0,-100.00,ENE,75,4.0,6.0,96,-99.99,,,-99.99,,2013-04-11 17:53:00,
2013-04-11 12:02:00,32.0,31.0,-100.00,East,90,2.0,5.0,96,-99.99,,,-99.99,,2013-04-11 18:02:00,
2013-04-11 12:12:00,31.0,30.0,-100.00,NNE,29,4.0,9.0,95,-99.99,,,-99.99,,2013-04-11 18:12:00,
2013-04-11 12:22:00,31.0,30.0,-100.00,NNE,29,4.0,9.0,95,-99.99,,,-99.99,,2013-04-11 18:22:00,
2013-04-11 12:32:00,31.0,30.0,-100.00,NNE,29,4.0,9.0,95,-99.99,,,-99.99,,2013-04-11 18:32:00,
2013-04-11 12:42:00,31.0,30.0,-100.00,NNW,343,3.0,8.0,95,-99.99,,,-99.99,,2013-04-11 18:42:00,
2013-04-11 12:53:00,31.0,30.0,-100.00,NNW,343,3.0,8.0,95,-99.99,,,-99.99,,2013-04-11 18:53:00,
2013-04-11 13:03:00,31.0,30.0,-100.00,NNW,343,3.0,8.0,95,-99.99,,,-99.99,,2013-04-11 19:03:00,
2013-04-11 13:13:00,34.0,31.0,-100.00,NW,305,1.0,4.0,87,-99.99,,,-99.99,,2013-04-11 19:13:00,
2013-04-11 13:22:00,34.0,31.0,-100.00,NW,305,1.0,4.0,87,-99.99,,,-99.99,,2013-04-11 19:22:00,
2013-04-11 13:32:00,34.0,31.0,-100.00,NW,305,1.0,4.0,87,-99.99,,,-99.99,,2013-04-11 19:32:00,
2013-04-11 13:42:00,34.0,28.0,-100.00,North,352,6.0,12.0,80,-99.99,,,-99.99,,2013-04-11 19:42:00,
2013-04-11 13:53:00,34.0,28.0,-100.00,North,352,6.0,12.0,80,-99.99,,,-99.99,,2013-04-11 19:53:00,
2013-04-11 14:02:00,34.0,28.0,-100.00,NNE,24,4.0,10.0,78,-99.99,,,-99.99,,2013-04-11 20:02:00,
2013-04-11 14:12:00,36.0,27.0,-100.00,NNW,335,5.0,12.0,71,-99.99,,,-99.99,,2013-04-11 20:12:00,
2013-04-11 14:21:00,36.0,27.0,-100.00,NNW,335,5.0,12.0,71,-99.99,,,-99.99,,2013-04-11 20:21:00,
2013-04-11 14:32:00,36.0,27.0,-100.00,NNW,335,5.0,12.0,71,-99.99,,,-99.99,,2013-04-11 20:32:00,
2013-04-11 14:42:00,38.0,28.0,-100.00,NW,318,5.0,11.0,68,-99.99,,,-99.99,,2013-04-11 20:42:00,
2013-04-11 14:52:00,38.0,28.0,-100.00,NW,318,5.0,11.0,68,-99.99,,,-99.99,,2013-04-11 20:52:00,
2013-04-11 15:02:00,37.0,28.0,-100.00,NNW,327,6.0,14.0,68,-99.99,,,-99.99,,2013-04-11 21:02:00,
2013-04-11 15:12:00,39.0,26.0,-100.00,West,276,4.0,12.0,59,-99.99,,,-99.99,,2013-04-11 21:12:00,
2013-04-11 15:22:00,39.0,26.0,-100.00,West,276,4.0,12.0,59,-99.99,,,-99.99,,2013-04-11 21:22:00,
2013-04-11 15:32:00,39.0,26.0,-100.00,West,276,4.0,12.0,59,-99.99,,,-99.99,,2013-04-11 21:32:00,
2013-04-11 15:42:00,39.0,24.0,-100.00,WNW,294,4.0,9.0,55,-99.99,,,-99.99,,2013-04-11 21:42:00,
2013-04-11 15:54:00,39.0,24.0,-100.00,WNW,294,4.0,9.0,55,-99.99,,,-99.99,,2013-04-11 21:54:00,
2013-04-11 16:03:00,40.0,25.0,-100.00,NW,310,4.0,12.0,53,-99.99,,,-99.99,,2013-04-11 22:03:00,
2013-04-11 16:13:00,40.0,24.0,-100.00,WNW,282,3.0,10.0,51,-99.99,,,-99.99,,2013-04-11 22:13:00,
2013-04-11 16:22:00,40.0,24.0,-100.00,WNW,282,3.0,10.0,51,-99.99,,,-99.99,,2013-04-11 22:22:00,
2013-04-11 16:32:00,40.0,24.0,-100.00,WNW,282,3.0,10.0,51,-99.99,,,-99.99,,2013-04-11 22:32:00,
2013-04-11 16:43:00,41.0,22.0,-100.00,NW,315,3.0,7.0,46,-99.99,,,-99.99,,2013-04-11 22:43:00,
2013-04-11 16:53:00,41.0,22.0,-100.00,NW,315,3.0,7.0,46,-99.99,,,-99.99,,2013-04-11 22:53:00,
2013-04-11 17:03:00,41.0,22.0,-100.00,NW,322,2.0,7.0,45,-99.99,,,-99.99,,2013-04-11 23:03:00,
2013-04-11 17:12:00,40.0,23.0,-100.00,WNW,299,2.0,7.0,49,-99.99,,,-99.99,,2013-04-11 23:12:00,
2013-04-11 17:22:00,40.0,23.0,-100.00,WNW,299,2.0,7.0,49,-99.99,,,-99.99,,2013-04-11 23:22:00,
2013-04-11 17:32:00,40.0,23.0,-100.00,WNW,299,2.0,7.0,49,-99.99,,,-99.99,,2013-04-11 23:32:00,
2013-04-11 17:42:00,40.0,23.0,-100.00,NNW,332,1.0,6.0,50,-99.99,,,-99.99,,2013-04-11 23:42:00,
2013-04-11 17:53:00,40.0,23.0,-100.00,NNW,332,1.0,6.0,50,-99.99,,,-99.99,,2013-04-11 23:53:00,
2013-04-11 18:02:00,40.0,24.0,-100.00,WSW,255,3.0,8.0,50,-99.99,,,-99.99,,2013-04-12 00:02:00,
2013-04-11 18:12:00,41.0,24.0,-100.00,West,270,3.0,8.0,49,-99.99,,,-99.99,,2013-04-12 00:12:00,
2013-04-11 18:22:00,41.0,24.0,-100.00,West,270,3.0,8.0,49,-99.99,,,-99.99,,2013-04-12 00:22:00,
2013-04-11 18:32:00,41.0,24.0,-100.00,West,270,3.0,8.0,49,-99.99,,,-99.99,,2013-04-12 00:32:00,
2013-04-11 18:42:00,41.0,22.0,-100.00,North,358,3.0,7.0,45,-99.99,,,-99.99,,2013-04-12 00:42:00,
2013-04-11 18:53:00,41.0,22.0,-100.00,North,358,3.0,7.0,45,-99.99,,,-99.99,,2013-04-12 00:53:00,
2013-04-11 19:02:00,39.0,22.0,-100.00,SSW,192,1.0,3.0,50,-99.99,,,-99.99,,2013-04-12 01:02:00,
2013-04-11 19:12:00,39.0,24.0,-100.00,West,263,2.0,5.0,52,-99.99,,,-99.99,,2013-04-12 01:12:00,
2013-04-11 19:22:00,39.0,24.0,-100.00,West,263,2.0,5.0,52,-99.99,,,-99.99,,2013-04-12 01:22:00,
2013-04-11 19:32:00,39.0,24.0,-100.00,West,263,2.0,5.0,52,-99.99,,,-99.99,,2013-04-12 01:32:00,
2013-04-11 19:42:00,38.0,25.0,-100.00,South,174,1.0,4.0,59,-99.99,,,-99.99,,2013-04-12 01:42:00,
2013-04-11 19:52:00,38.0,25.0,-100.00,South,174,1.0,4.0,59,-99.99,,,-99.99,,2013-04-12 01:52:00,
2013-04-11 20:02:00,36.0,26.0,-100.00,South,172,2.0,5.0,65,-99.99,,,-99.99,,2013-04-12 02:02:00,
2013-04-11 20:12:00,35.0,26.0,-100.00,SW,217,4.0,8.0,68,-99.99,,,-99.99,,2013-04-12 02:12:00,
2013-04-11 20:22:00,35.0,26.0,-100.00,SW,217,4.0,8.0,68,-99.99,,,-99.99,,2013-04-12 02:22:00,
2013-04-11 20:32:00,35.0,26.0,-100.00,SW,217,4.0,8.0,68,-99.99,,,-99.99,,2013-04-12 02:32:00,
2013-04-11 20:42:00,34.0,26.0,-100.00,SSW,208,6.0,10.0,72,-99.99,,,-99.99,,2013-04-12 02:42:00,
2013-04-11 20:52:00,34.0,26.0,-100.00,SSW,208,6.0,10.0,72,-99.99,,,-99.99,,2013-04-12 02:52:00,
2013-04-11 21:02:00,33.0,25.0,-100.00,SW,214,6.0,11.0,72,-99.99,,,-99.99,,2013-04-12 03:02:00,
2013-04-11 21:12:00,33.0,25.0,-100.00,SW,214,6.0,11.0,71,-99.99,,,-99.99,,2013-04-12 03:12:00,
2013-04-11 21:22:00,33.0,25.0,-100.00,SW,214,6.0,11.0,71,-99.99,,,-99.99,,2013-04-12 03:22:00,
2013-04-11 21:33:00,33.0,25.0,-100.00,SW,214,6.0,11.0,71,-99.99,,,-99.99,,2013-04-12 03:33:00,
2013-04-11 21:43:00,32.0,25.0,-100.00,SSW,210,8.0,12.0,73,-99.99,,,-99.99,,2013-04-12 03:43:00,
2013-04-11 21:53:00,32.0,25.0,-100.00,SSW,210,8.0,12.0,73,-99.99,,,-99.99,,2013-04-12 03:53:00,
2013-04-11 22:02:00,32.0,25.0,-100.00,SSW,210,8.0,12.0,73,-99.99,,,-99.99,,2013-04-12 04:02:00,
2013-04-11 22:13:00,33.0,24.0,-100.00,SW,218,8.0,11.0,70,-99.99,,,-99.99,,2013-04-12 04:13:00,
2013-04-11 22:22:00,33.0,24.0,-100.00,SW,218,8.0,11.0,70,-99.99,,,-99.99,,2013-04-12 04:22:00,
2013-04-11 22:33:00,33.0,24.0,-100.00,SW,218,8.0,11.0,70,-99.99,,,-99.99,,2013-04-12 04:33:00,
2013-04-11 22:43:00,33.0,23.0,-100.00,SW,215,6.0,9.0,65,-99.99,,,-99.99,,2013-04-12 04:43:00,
2013-04-11 22:53:00,33.0,23.0,-100.00,SW,215,6.0,9.0,65,-99.99,,,-99.99,,2013-04-12 04:53:00,
2013-04-11 23:02:00,33.0,22.0,-100.00,SSW,212,5.0,11.0,64,-99.99,,,-99.99,,2013-04-12 05:02:00,
2013-04-11 23:12:00,33.0,21.0,-100.00,SW,229,5.0,8.0,59,-99.99,,,-99.99,,2013-04-12 05:12:00,
2013-04-11 23:22:00,33.0,21.0,-100.00,SW,229,5.0,8.0,59,-99.99,,,-99.99,,2013-04-12 05:22:00,
2013-04-11 23:32:00,33.0,21.0,-100.00,SW,229,5.0,8.0,59,-99.99,,,-99.99,,2013-04-12 05:32:00,
2013-04-11 23:42:00,34.0,19.0,-100.00,WSW,240,6.0,9.0,54,-99.99,,,-99.99,,2013-04-12 05:42:00,
2013-04-11 23:52:00,34.0,19.0,-100.00,WSW,240,6.0,9.0,54,-99.99,,,-99.99,,2013-04-12 05:52:00,